Weather History for Fort Lauderdale, FL

Change the Weather History Date:

Wednesday, December 26, 2012

  Actual Average Record
Temperature  
Mean Temperature 74 °F -  
Max Temperature 82 °F 75 °F 88 °F (1990)
Min Temperature 63 °F 56 °F 30 °F (1983)
Cooling Degree Days 9    
Growing Degree Days 24 (Base 50)    
Moisture  
Dew Point 66 °F    
Average Humidity 76    
Maximum Humidity 94    
Minimum Humidity 54    
Precipitation  
Precipitation 0.16 in - - ()
Sea Level Pressure  
Sea Level Pressure 29.93 in    
Wind  
Wind Speed 9 mph (SW)    
Max Wind Speed 22 mph    
Max Gust Speed 32 mph    
Visibility 10 miles    
Events Rain    
Averages and records for this station are not official NWS values.
T = Trace of Precipitation, MM = Missing Value Source: NWS Daily Summary

Daily Weather History Graph

Daily Weather History Graph

Search for Another Location

Airport:

Trip Planner

Search our weather history database for the weather conditions in past years. The results will help you decide how hot, cold, wet, or windy it might be!

Date:

Astronomy

Dec. 26, 2012 Rise Set
Actual Time 7:06 AM EST 5:36 PM EST
Civil Twilight 6:41 AM EST 6:02 PM EST
Nautical Twilight 6:12 AM EST 6:30 PM EST
Astronomical Twilight 5:43 AM EST 6:59 PM EST
Moon 4:26 PM EST (12/26) 5:31 AM EST (12/26)
Length of Visible Light 11h 21m
Length of Day
10h 30m
Waxing Gibbous, 97% of the Moon is Illuminated
Dec 26
Waxing Gibbous
Dec 28
Full
Jan 4
Last Quarter
Jan 11
New
Jan 18
First Quarter

Hourly Weather History & Observations

Time (EST) Temp. Heat Index Dew Point Humidity Pressure Visibility Wind Dir Wind Speed Gust Speed Precip Events Conditions
12:53 AM 73.9 °F - 64.0 °F 71% 29.93 in 10.0 mi SSE 8.1 mph - N/A   Partly Cloudy
1:53 AM 73.9 °F - 64.9 °F 73% 29.92 in 10.0 mi SE 8.1 mph - N/A   Partly Cloudy
2:53 AM 75.0 °F - 66.9 °F 76% 29.93 in 10.0 mi SSE 11.5 mph - N/A   Scattered Clouds
3:53 AM 73.9 °F - 66.9 °F 79% 29.92 in 10.0 mi South 5.8 mph - N/A   Partly Cloudy
4:53 AM 73.0 °F - 66.9 °F 81% 29.94 in 10.0 mi Calm Calm - N/A   Mostly Cloudy
5:53 AM 72.0 °F - 66.9 °F 84% 29.96 in 10.0 mi Calm Calm - N/A   Scattered Clouds
6:53 AM 69.8 °F - 66.2 °F 88% 29.94 in 10.0 mi ESE 3.5 mph - N/A   Scattered Clouds
7:53 AM 73.0 °F - 68.0 °F 84% 29.95 in 10.0 mi SSE 4.6 mph - N/A   Scattered Clouds
8:53 AM 78.1 °F - 69.1 °F 74% 29.95 in 10.0 mi South 10.4 mph 20.7 mph N/A   Scattered Clouds
9:53 AM 80.1 °F 82.9 °F 69.1 °F 69% 29.96 in 10.0 mi SSW 13.8 mph 19.6 mph N/A   Scattered Clouds
10:53 AM 81.0 °F 83.0 °F 66.0 °F 60% 29.95 in 10.0 mi SSW 12.7 mph 21.9 mph N/A   Scattered Clouds
11:53 AM 82.9 °F 84.6 °F 64.9 °F 54% 29.93 in 10.0 mi SSW 16.1 mph 21.9 mph N/A   Mostly Cloudy
12:53 PM 82.0 °F 83.8 °F 64.9 °F 56% 29.89 in 10.0 mi SW 18.4 mph 25.3 mph N/A   Overcast
1:53 PM 82.0 °F 84.1 °F 66.0 °F 58% 29.87 in 10.0 mi SW 20.7 mph 27.6 mph N/A   Scattered Clouds
2:53 PM 82.9 °F 85.4 °F 66.9 °F 58% 29.86 in 10.0 mi WSW 18.4 mph 27.6 mph N/A   Scattered Clouds
3:53 PM 82.9 °F 85.0 °F 66.0 °F 56% 29.87 in 10.0 mi WSW 21.9 mph 32.2 mph N/A   Partly Cloudy
4:53 PM 81.0 °F 83.3 °F 66.9 °F 62% 29.87 in 10.0 mi SW 16.1 mph 21.9 mph N/A   Mostly Cloudy
5:53 PM 78.1 °F - 66.9 °F 68% 29.88 in 10.0 mi SW 12.7 mph - N/A   Scattered Clouds
6:53 PM 77.0 °F - 69.1 °F 76% 29.90 in 10.0 mi SW 13.8 mph - N/A   Clear
7:53 PM 69.1 °F - 64.9 °F 87% 29.94 in 7.0 mi West 9.2 mph 16.1 mph 0.15 in Rain Light Rain
8:00 PM 69.8 °F - 64.4 °F 83% 29.93 in 10.0 mi West 9.2 mph - 0.00 in Rain Light Rain
8:53 PM 69.1 °F - 66.0 °F 90% 29.96 in 10.0 mi WNW 6.9 mph - 0.01 in   Overcast
9:18 PM 68.0 °F - 64.4 °F 88% 29.96 in 10.0 mi WNW 9.2 mph - N/A   Overcast
9:53 PM 68.0 °F - 64.0 °F 87% 29.98 in 10.0 mi WNW 9.2 mph - N/A   Mostly Cloudy
10:00 PM 66.2 °F - 64.4 °F 94% 29.97 in 10.0 mi West 5.8 mph - N/A   Overcast
10:30 PM 66.2 °F - 62.6 °F 88% 29.98 in 10.0 mi WNW 8.1 mph - N/A   Partly Cloudy
10:53 PM 66.0 °F - 62.1 °F 87% 30.00 in 10.0 mi WNW 8.1 mph - N/A   Clear
11:53 PM 63.0 °F - 57.9 °F 84% 30.00 in 10.0 mi WNW 9.2 mph - N/A   Clear